Regional Weather Roundup
Issued by NWS

Home | Current Version | Previous Version | Text Only | Print | Product List | Glossary Off
Versions: 1 2 3 4 5 6 7 8 9 10 11 12 13 14 15 16 17 18 19 20 21 22 23 24 25 26 27 28 29 30 31 32 33 34 35 36 37 38 39 40 41 42 43 44 45 46 47 48 49 50

950
ASUS45 KABQ 231901
RWRNM
NEW MEXICO REGIONAL WEATHER ROUNDUP
NATIONAL WEATHER SERVICE ALBUQUERQUE NM
100 PM MDT SAT JUL 23 2016

NOTE: "FAIR" MEANS FEW OR NO CLOUDS BELOW 12,000 FEET AGL WITH NO
       SIGNIFICANT WEATHER OR OBSTRUCTIONS TO VISION.

      THIS PRODUCT IS RELEASED AS TWO VERSIONS.  ONE VERSION NEAR
      THE TOP OF THE HOUR CONTAINING PRELIMINARY DATA FROM ALBUQUERQUE
      AND OTHER STATIONS.  A FINAL VERSION WITH ADDITIONAL DATA IS
      ISSUED ABOUT 10 MINUTES AFTER THE HOUR.

NMZ501-503-504-510>518-232000-
NORTHWEST PLATEAU/NORTHCENTRAL MOUNTAINS

CITY           SKY/WX    TMP DP  RH WIND       PRES   REMARKS
FARMINGTON     FAIR      90  47  22 W12       30.16F
LOS ALAMOS     FAIR      85  42  22 NE3       30.29F
SANTA FE       FAIR      94  42  16 VRB6      30.19F
TAOS           FAIR      86  41  20 W6        30.28F
ANGEL FIRE     FAIR      80  39  23 W12G20    30.38F

$$
NMZ402-403-502-505>509-232000-
WESTCENTRAL MOUNTAINS/SOUTHWEST MOUNTAINS

CITY           SKY/WX    TMP DP  RH WIND       PRES   REMARKS
GALLUP         FAIR      92  42  17 MISG      30.25F
GRANTS         FAIR      91  38  15 E9G16     30.26F
SILVER CITY    FAIR      94  46  19 S10       30.15F

$$
NMZ407-409-411-412-232000-
SOUTHERN DESERTS

CITY           SKY/WX    TMP DP  RH WIND       PRES   REMARKS
LORDSBURG      FAIR      95  46  18 CALM      30.08F
DEMING         FAIR      98  45  16 MISG      30.05F
LAS CRUCES     FAIR      96  40  14 W3        30.08F
ALAMOGORDO     FAIR      97  45  16 SW6       30.06F
T OR C         FAIR      95  44  17 S6        30.08F

$$
NMZ519>523-232000-
CENTRAL VALLEYS/CENTRAL HIGHLANDS

CITY           SKY/WX    TMP DP  RH WIND       PRES   REMARKS
ALBUQUERQUE    FAIR      92  44  19 VRB3      30.14F
DOUBLE EAGLE   MOSUNNY   93  46  20 NE6       30.18F
MORIARTY ARPT  FAIR      95  36  13 W7        30.20F
CLINES CORNERS FAIR      90  43  19 W13       30.27F
BELEN          FAIR      94  45  18 NE9       30.13F
SOCORRO        FAIR      96  44  16 N6        30.10F

$$
NMZ524>526-539-540-232000-
SOUTHCENTRAL MOUNTAINS

CITY           SKY/WX    TMP DP  RH WIND       PRES   REMARKS
RUIDOSO          N/A     90  41  18 SE5       30.28F

$$
NMZ527>531-232000-
NORTHEAST HIGHLANDS/NORTHEAST PLAINS

CITY           SKY/WX    TMP DP  RH WIND       PRES   REMARKS
LAS VEGAS      FAIR      93  40  15 SE14G23   30.22F
RATON          TSTM      89  41  18 VRB5      30.17F
CLAYTON        FAIR      96  49  20 S10       30.08F

$$
NMZ532>537-232000-
EASTCENTRAL PLAINS

CITY           SKY/WX    TMP DP  RH WIND       PRES   REMARKS
TUCUMCARI      FAIR     101  45  15 SW14G26   30.01F HX  97
CANNON AFB     FAIR      95  49  21 S15G21    30.08F
CLOVIS AIRPORT FAIR      93  52  24 S13G22    30.09F

$$
NMZ028-029-538-232000-
SOUTHEAST PLAINS

CITY           SKY/WX    TMP DP  RH WIND       PRES   REMARKS
ROSWELL        FAIR      98  47  17 SE15G21   30.02F
ARTESIA        FAIR      95  50  21 E10       30.02F
CARLSBAD       FAIR      97  51  21 VRB7      29.99F


$$




USA.gov is the U.S. government's official web portal to all federal, state and local government web resources and services.